DW2659 Weather Reports


time (UTC)temp
C
wind
direction
speed
KPH
gust
KPH
rain 1hr
cm
rain 24hr
cm
rain mn
cm
humidity
%
barometer
mb
20260502170404 17 9 3.2 8.0 0.00 0.00 0.00 39 1014.3
20260502163903 17 21 4.8 11.3 0.00 0.00 0.00 38 1014.7
20260502163404 17 19 3.2 8.0 0.00 0.00 0.00 42 1014.7
20260502162903 16 15 1.6 4.8 0.00 0.00 0.00 41 1014.7
20260502161904 16 19 3.2 8.0 0.00 0.00 0.00 40 1014.7
20260502161403 16 0 3.2 9.7 0.00 0.00 0.00 44 1014.8
20260502160904 16 26 3.2 8.0 0.00 0.00 0.00 43 1014.8
20260502160405 16 19 3.2 8.0 0.00 0.00 0.00 42 1014.8
20260502151905 15 0 1.6 4.8 0.00 0.00 0.00 47 1014.4
20260502130404 12 353 1.6 4.8 0.00 0.00 0.00 57 1013.7
20260502123404 12 40 3.2 4.8 0.00 0.00 0.00 58 1013.5
20260502122903 12 34 3.2 4.8 0.00 0.00 0.00 58 1013.5
20260502122405 11 23 3.2 8.0 0.00 0.00 0.00 58 1013.5
20260502121904 11 35 1.6 4.8 0.00 0.00 0.00 61 1013.5
20260502120904 11 34 1.6 3.2 0.00 0.00 0.00 60 1013.4
20260502115903 11 27 1.6 4.8 0.00 0.00 0.00 60 1013.4
20260502115404 11 5 1.6 3.2 0.00 0.00 0.00 59 1013.4
20260502114904 11 17 1.6 4.8 0.00 0.00 0.00 60 1013.4
20260502114403 11 350 1.6 4.8 0.00 0.00 0.00 58 1013.6
20260502113905 11 26 1.6 3.2 0.00 0.00 0.00 58 1013.6
20260502113404 11 26 1.6 4.8 0.00 0.00 0.00 58 1013.6
20260502112904 11 12 1.6 3.2 0.00 0.00 0.00 58 1013.4
20260502112405 11 22 1.6 3.2 0.00 0.00 0.00 58 1013.4
20260502111403 11 355 3.2 4.8 0.00 0.00 0.00 57 1013.4
20260502110905 11 37 1.6 4.8 0.00 0.00 0.00 58 1013.4
20260502110404 11 34 1.6 4.8 0.00 0.00 0.00 57 1013.4
20260502105906 11 44 1.6 4.8 0.00 0.00 0.00 58 1012.8
20260502104904 11 43 1.6 4.8 0.00 0.00 0.00 58 1012.8
20260502104404 11 27 1.6 4.8 0.00 0.00 0.00 58 1012.8
20260502103904 11 27 1.6 4.8 0.00 0.00 0.00 57 1012.7
20260502103403 11 347 0.0 3.2 0.00 0.00 0.00 58 1012.8
20260502102903 11 340 1.6 4.8 0.00 0.00 0.00 57 1012.8
20260502102405 11 5 1.6 4.8 0.00 0.00 0.00 56 1012.8
20260502101904 11 30 1.6 4.8 0.00 0.00 0.00 56 1012.8
20260502101404 11 10 1.6 3.2 0.00 0.00 0.00 56 1012.8
20260502100905 11 5 0.0 3.2 0.00 0.00 0.00 55 1013.0
20260502100404 11 5 1.6 3.2 0.00 0.00 0.00 55 1013.0
20260502091403 12 11 1.6 4.8 0.00 0.00 0.00 54 1012.7
20260502090405 12 42 1.6 4.8 0.00 0.00 0.00 53 1012.7
20260502071404 13 11 3.2 4.8 0.00 0.00 0.00 48 1013.7
20260502070904 13 343 3.2 4.8 0.00 0.00 0.00 48 1013.7
20260502070405 13 30 1.6 4.8 0.00 0.00 0.00 48 1013.7
20260502065906 13 30 1.6 4.8 0.00 0.00 0.00 49 1013.7
20260502064905 13 9 0.0 3.2 0.00 0.00 0.00 48 1013.7
20260502063904 13 23 1.6 9.7 0.00 0.00 0.00 49 1013.7
20260502063405 13 10 1.6 3.2 0.00 0.00 0.00 50 1013.8
20260502062903 13 27 1.6 3.2 0.00 0.00 0.00 50 1014.0
20260502061905 13 355 1.6 3.2 0.00 0.00 0.00 49 1014.0
20260502061404 13 7 1.6 3.2 0.00 0.00 0.00 50 1014.0
20260502060904 13 355 0.0 4.8 0.00 0.00 0.00 53 1014.0
20260502060405 13 348 1.6 4.8 0.00 0.00 0.00 52 1014.0
20260502055904 13 357 1.6 4.8 0.00 0.00 0.00 53 1013.9
20260502055404 13 28 1.6 4.8 0.00 0.00 0.00 54 1014.0
20260502054404 13 5 0.0 0.0 0.00 0.00 0.00 55 1013.5
20260502053904 13 5 0.0 0.0 0.00 0.00 0.00 55 1013.5
20260502053405 13 350 0.0 0.0 0.00 0.00 0.00 55 1013.5
20260502052904 13 20 1.6 3.2 0.00 0.00 0.00 57 1013.5
20260502051905 13 348 1.6 3.2 0.00 0.00 0.00 57 1013.5
20260502051404 14 46 1.6 3.2 0.00 0.00 0.00 57 1013.6
20260502050904 14 96 1.6 8.0 0.00 0.00 0.00 56 1013.6
20260502050405 14 11 1.6 4.8 0.00 0.00 0.00 55 1013.6
20260502045904 14 5 1.6 3.2 0.00 0.00 0.00 56 1013.6
20260502045404 14 338 1.6 4.8 0.00 0.00 0.00 56 1013.6
20260502044905 14 15 1.6 1.6 0.00 0.00 0.00 57 1013.6
20260502044404 14 15 1.6 4.8 0.00 0.00 0.00 58 1013.6
20260502043904 14 346 0.0 3.2 0.00 0.00 0.00 59 1013.6
20260502043406 14 346 0.0 3.2 0.00 0.00 0.00 60 1013.6
20260502042404 14 355 1.6 3.2 0.00 0.00 0.00 61 1013.7
20260502041905 14 355 1.6 4.8 0.00 0.00 0.00 61 1013.7
20260502040904 14 29 1.6 3.2 0.00 0.00 0.00 63 1014.0
20260502035903 13 58 0.0 3.2 0.00 0.00 0.00 66 1013.8
20260502035404 13 58 0.0 3.2 0.00 0.00 0.00 66 1013.8
20260502034906 13 58 0.0 3.2 0.00 0.00 0.00 68 1013.8
20260502034404 13 58 1.6 3.2 0.00 0.00 0.00 68 1013.8
20260502033904 13 86 0.0 1.6 0.00 0.00 0.00 73 1013.8
20260502032404 13 14 0.0 0.0 0.00 0.00 0.00 72 1013.8
20260502031905 13 14 0.0 0.0 0.00 0.00 0.00 72 1013.8
20260502030904 13 14 0.0 0.0 0.00 0.00 0.00 74 1013.6
20260502025904 13 3 0.0 3.2 0.00 0.00 0.00 75 1013.4
20260502025404 13 23 1.6 3.2 0.00 0.00 0.00 75 1013.4
20260502024903 13 267 1.6 4.8 0.00 0.00 0.00 75 1013.4
20260502024403 13 248 0.0 1.6 0.00 0.00 0.00 74 1013.4
20260502023903 13 248 0.0 1.6 0.00 0.00 0.00 75 1013.4
20260502023404 13 248 0.0 1.6 0.00 0.00 0.00 75 1013.4
20260502022402 13 248 0.0 1.6 0.00 0.00 0.00 76 1013.3
20260502021903 13 248 0.0 0.0 0.00 0.00 0.00 75 1013.3
20260502020903 13 248 0.0 1.6 0.00 0.00 0.00 75 1013.3
20260502020403 13 248 0.0 0.0 0.00 0.00 0.00 74 1013.3
20260502015903 14 248 0.0 0.0 0.00 0.00 0.00 74 1013.2
20260502015403 14 248 0.0 0.0 0.00 0.00 0.00 74 1013.2
20260502014402 14 248 0.0 0.0 0.00 0.00 0.00 73 1013.2
20260502013902 14 248 0.0 0.0 0.00 0.00 0.00 73 1013.2
20260502013404 14 248 0.0 0.0 0.00 0.00 0.00 72 1013.2
20260502012903 14 248 0.0 0.0 0.00 0.00 0.00 71 1012.8
20260502012402 14 248 0.0 0.0 0.00 0.00 0.00 71 1012.8
20260502011904 14 248 0.0 0.0 0.00 0.00 0.00 70 1012.8
20260502011402 15 248 0.0 0.0 0.00 0.00 0.00 70 1012.7
20260502010903 15 248 0.0 0.0 0.00 0.00 0.00 69 1012.7
20260502005403 15 248 0.0 0.0 0.00 0.00 0.00 68 1012.4
20260502004904 15 248 0.0 0.0 0.00 0.00 0.00 67 1012.4
20260502004402 15 248 0.0 0.0 0.00 0.00 0.00 67 1012.3
20260502003903 15 248 0.0 0.0 0.00 0.00 0.00 66 1012.3
20260502003404 15 248 0.0 0.0 0.00 0.00 0.00 66 1012.3
20260502002403 16 248 0.0 0.0 0.00 0.00 0.00 64 1012.2
20260502001403 16 248 0.0 0.0 0.00 0.00 0.00 65 1012.1
20260502000903 16 248 0.0 0.0 0.00 0.00 0.00 66 1012.1
20260502000404 16 248 0.0 0.0 0.00 0.00 0.00 64 1012.1
20260501235903 16 248 0.0 0.0 0.00 0.00 0.00 64 1012.1
20260501235402 16 248 0.0 0.0 0.00 0.00 0.00 64 1012.1
20260501234402 16 248 0.0 0.0 0.00 0.00 0.00 67 1012.3
20260501233903 16 248 0.0 0.0 0.00 0.00 0.00 65 1012.3
20260501233404 17 248 0.0 0.0 0.00 0.00 0.00 64 1012.3
20260501232902 17 248 0.0 1.6 0.00 0.00 0.00 64 1012.1
20260501232403 17 248 0.0 1.6 0.00 0.00 0.00 63 1012.1
20260501231903 17 248 0.0 0.0 0.00 0.00 0.00 62 1012.1
20260501231403 17 248 0.0 1.6 0.00 0.00 0.00 63 1012.1
20260501230903 17 248 0.0 0.0 0.00 0.00 0.00 61 1011.9
20260501230404 18 248 0.0 1.6 0.00 0.00 0.00 59 1011.9
20260501225902 18 248 0.0 0.0 0.00 0.00 0.00 55 1011.8
20260501224903 18 248 0.0 1.6 0.00 0.00 0.00 57 1011.8
20260501224403 18 248 0.0 1.6 0.00 0.00 0.00 56 1011.4
20260501223904 18 248 0.0 0.0 0.00 0.00 0.00 57 1011.4
20260501222902 19 248 0.0 1.6 0.00 0.00 0.00 54 1011.4
20260501222404 19 248 0.0 1.6 0.00 0.00 0.00 53 1011.4
20260501221902 19 248 0.0 3.2 0.00 0.00 0.00 48 1011.4
20260501220904 19 232 1.6 3.2 0.00 0.00 0.00 43 1011.6
20260501220403 20 215 0.0 1.6 0.00 0.00 0.00 45 1011.6
20260501215903 20 215 0.0 0.0 0.00 0.00 0.00 49 1011.6
20260501215404 19 215 0.0 1.6 0.00 0.00 0.00 49 1011.8
20260501214903 19 215 0.0 1.6 0.00 0.00 0.00 45 1011.8
20260501214403 19 215 1.6 3.2 0.00 0.00 0.00 42 1012.2
20260501213904 19 248 1.6 3.2 0.00 0.00 0.00 41 1012.2
20260501213403 19 248 0.0 1.6 0.00 0.00 0.00 42 1012.2
20260501212903 19 248 1.6 3.2 0.00 0.00 0.00 42 1012.5
20260501211902 19 246 1.6 4.8 0.00 0.00 0.00 41 1012.5
20260501211403 19 243 1.6 4.8 0.00 0.00 0.00 42 1012.5
20260501210904 19 222 1.6 3.2 0.00 0.00 0.00 42 1012.5
20260501210403 18 188 0.0 3.2 0.00 0.00 0.00 43 1012.5
20260501205903 18 240 1.6 4.8 0.00 0.00 0.00 40 1012.9
20260501205404 19 246 1.6 4.8 0.00 0.00 0.00 40 1012.9
20260501204902 19 248 1.6 4.8 0.00 0.00 0.00 41 1012.9
20260501204403 19 207 1.6 4.8 0.00 0.00 0.00 43 1013.0
20260501203904 19 232 3.2 4.8 0.00 0.00 0.00 41 1013.0
20260501203402 19 227 1.6 4.8 0.00 0.00 0.00 41 1013.0
20260501202903 19 233 3.2 8.0 0.00 0.00 0.00 39 1013.0
20260501201903 19 227 1.6 3.2 0.00 0.00 0.00 40 1013.0
20260501201403 19 222 1.6 4.8 0.00 0.00 0.00 42 1013.3
20260501200904 19 83 1.6 4.8 0.00 0.00 0.00 42 1013.3
20260501200402 19 237 1.6 3.2 0.00 0.00 0.00 40 1013.3
20260501195903 19 78 0.0 3.2 0.00 0.00 0.00 45 1013.3
20260501195404 19 113 0.0 8.0 0.00 0.00 0.00 44 1013.3
20260501194902 18 325 3.2 8.0 0.00 0.00 0.00 43 1013.3
20260501194403 19 235 3.2 8.0 0.00 0.00 0.00 44 1013.4
20260501193904 19 239 1.6 4.8 0.00 0.00 0.00 44 1013.4
20260501193403 19 252 1.6 3.2 0.00 0.00 0.00 43 1013.4
20260501192404 19 43 0.0 1.6 0.00 0.00 0.00 47 1013.6
20260501191903 19 43 0.0 3.2 0.00 0.00 0.00 42 1013.6
20260501190904 20 270 3.2 4.8 0.00 0.00 0.00 45 1013.5
20260501190403 19 47 1.6 3.2 0.00 0.00 0.00 47 1013.5
20260501185903 19 94 1.6 4.8 0.00 0.00 0.00 46 1013.4
20260501185404 19 142 4.8 4.8 0.00 0.00 0.00 47 1013.4
20260501184903 19 210 1.6 4.8 0.00 0.00 0.00 48 1013.4
20260501184403 18 131 3.2 4.8 0.00 0.00 0.00 47 1013.6
20260501183904 18 144 1.6 4.8 0.00 0.00 0.00 48 1013.6
20260501183403 18 221 3.2 4.8 0.00 0.00 0.00 44 1013.6
20260501182903 19 256 3.2 4.8 0.00 0.00 0.00 47 1013.9
20260501182404 18 196 0.0 3.2 0.00 0.00 0.00 48 1013.9
20260501181403 18 16 1.6 3.2 0.00 0.00 0.00 45 1013.9
20260501180904 18 238 1.6 4.8 0.00 0.00 0.00 42 1013.9
20260501175903 18 244 3.2 4.8 0.00 0.00 0.00 44 1013.9
20260501175404 18 212 4.8 9.7 0.00 0.00 0.00 45 1013.9
20260501173403 18 247 3.2 8.0 0.00 0.00 0.00 46 1013.8